| time (UTC) | temp F | wind direction | speed MPH | gust MPH | rain 1hr in | rain 24hr in | rain mn in | humidity % | barometer mb |
| 20260506140756 | 31 | 309 | 0.0 | 4.0 | 0.00 | 0.00 | 0.00 | 54 | 1017.4 |
| 20260506135740 | 30 | 310 | 0.0 | 3.0 | 0.00 | 0.00 | 0.00 | 58 | 1017.6 |
| 20260506134801 | 28 | 310 | 0.0 | 3.0 | 0.00 | 0.00 | 0.00 | 62 | 1017.6 |
| 20260506133759 | 27 | 310 | 2.0 | 3.0 | 0.00 | 0.00 | 0.00 | 64 | 1017.8 |
| 20260506132741 | 26 | 309 | 2.0 | 2.0 | 0.00 | 0.00 | 0.00 | 65 | 1017.8 |
| 20260506131743 | 24 | 310 | 0.0 | 0.0 | 0.00 | 0.00 | 0.00 | 68 | 1017.8 |
| 20260506130748 | 23 | 310 | 0.0 | 0.0 | 0.00 | 0.00 | 0.00 | 70 | 1017.7 |
| 20260506125748 | 20 | 310 | 0.0 | 0.0 | 0.00 | 0.00 | 0.00 | 71 | 1017.8 |
| 20260506124749 | 19 | 310 | 0.0 | 0.0 | 0.00 | 0.00 | 0.00 | 73 | 1017.8 |
| 20260506123750 | 17 | 310 | 0.0 | 0.0 | 0.00 | 0.00 | 0.00 | 75 | 1017.8 |
| 20260506122757 | 16 | 310 | 0.0 | 0.0 | 0.00 | 0.00 | 0.00 | 75 | 1017.8 |
| 20260506121758 | 16 | 310 | 0.0 | 0.0 | 0.00 | 0.00 | 0.00 | 75 | 1017.8 |
| 20260506120754 | 15 | 310 | 0.0 | 2.0 | 0.00 | 0.00 | 0.00 | 76 | 1017.7 |
| 20260506115812 | 15 | 309 | 1.0 | 1.0 | 0.00 | 0.00 | 0.00 | 75 | 1017.7 |
| 20260506114808 | 15 | 309 | 0.0 | 0.0 | 0.00 | 0.00 | 0.00 | 75 | 1017.8 |
| 20260506113749 | 16 | 310 | 0.0 | 0.0 | 0.00 | 0.00 | 0.00 | 74 | 1017.7 |
| 20260506112807 | 16 | 310 | 0.0 | 0.0 | 0.00 | 0.00 | 0.00 | 73 | 1017.8 |
| 20260506111743 | 17 | 309 | 0.0 | 0.0 | 0.00 | 0.00 | 0.00 | 72 | 1017.8 |
| 20260506110742 | 17 | 309 | 1.0 | 2.0 | 0.00 | 0.00 | 0.00 | 72 | 1017.8 |
| 20260506105742 | 17 | 309 | 0.0 | 1.0 | 0.00 | 0.00 | 0.00 | 73 | 1017.8 |
| 20260506104742 | 17 | 310 | 0.0 | 3.0 | 0.00 | 0.00 | 0.00 | 72 | 1017.8 |
| 20260506103747 | 17 | 310 | 2.0 | 3.0 | 0.00 | 0.00 | 0.00 | 72 | 1017.6 |
| 20260506102746 | 17 | 310 | 0.0 | 1.0 | 0.00 | 0.00 | 0.00 | 73 | 1017.6 |
| 20260506101747 | 17 | 310 | 0.0 | 0.0 | 0.00 | 0.00 | 0.00 | 71 | 1017.6 |
| 20260506100747 | 18 | 309 | 0.0 | 2.0 | 0.00 | 0.00 | 0.00 | 71 | 1017.7 |
| 20260506095751 | 18 | 310 | 1.0 | 3.0 | 0.00 | 0.00 | 0.00 | 72 | 1017.6 |
| 20260506094755 | 18 | 309 | 2.0 | 3.0 | 0.00 | 0.00 | 0.00 | 73 | 1017.5 |
| 20260506093755 | 17 | 310 | 2.0 | 2.0 | 0.00 | 0.00 | 0.00 | 74 | 1017.5 |
| 20260506092754 | 17 | 310 | 0.0 | 1.0 | 0.00 | 0.00 | 0.00 | 74 | 1017.3 |
| 20260506091759 | 18 | 310 | 0.0 | 0.0 | 0.00 | 0.00 | 0.00 | 73 | 1017.4 |
| 20260506090743 | 18 | 309 | 0.0 | 0.0 | 0.00 | 0.00 | 0.00 | 73 | 1018.3 |
| 20260506085803 | 19 | 310 | 0.0 | 1.0 | 0.00 | 0.00 | 0.00 | 73 | 1018.4 |
| 20260506084743 | 19 | 310 | 0.0 | 2.0 | 0.00 | 0.00 | 0.00 | 71 | 1018.5 |
| 20260506083743 | 19 | 310 | 2.0 | 3.0 | 0.00 | 0.00 | 0.00 | 73 | 1018.4 |
| 20260506082743 | 18 | 309 | 0.0 | 2.0 | 0.00 | 0.00 | 0.00 | 73 | 1018.4 |
| 20260506081747 | 19 | 310 | 0.0 | 1.0 | 0.00 | 0.00 | 0.00 | 72 | 1018.3 |
| 20260506080746 | 19 | 310 | 0.0 | 0.0 | 0.00 | 0.00 | 0.00 | 72 | 1018.3 |
| 20260506072755 | 20 | 309 | 0.0 | 0.0 | 0.00 | 0.00 | 0.00 | 71 | 1018.5 |
| 20260506071756 | 21 | 310 | 0.0 | 0.0 | 0.00 | 0.00 | 0.00 | 70 | 1018.6 |
| 20260506070756 | 21 | 309 | 0.0 | 2.0 | 0.00 | 0.00 | 0.00 | 68 | 1018.6 |
| 20260506061808 | 23 | 310 | 0.0 | 2.0 | 0.00 | 0.00 | 0.00 | 64 | 1018.2 |
| 20260506060808 | 23 | 310 | 0.0 | 3.0 | 0.00 | 0.00 | 0.00 | 64 | 1018.2 |
| 20260506050757 | 26 | 309 | 0.0 | 2.0 | 0.00 | 0.00 | 0.00 | 56 | 1018.1 |
| 20260506044755 | 26 | 310 | 2.0 | 2.0 | 0.00 | 0.00 | 0.00 | 56 | 1018.0 |
| 20260506043756 | 27 | 309 | 0.0 | 2.0 | 0.00 | 0.00 | 0.00 | 56 | 1017.9 |
| 20260506042741 | 28 | 309 | 1.0 | 3.0 | 0.00 | 0.00 | 0.00 | 54 | 1017.9 |
| 20260506041801 | 29 | 309 | 1.0 | 2.0 | 0.00 | 0.00 | 0.00 | 53 | 1017.9 |
| 20260506040802 | 29 | 309 | 0.0 | 2.0 | 0.00 | 0.00 | 0.00 | 51 | 1017.8 |
| 20260506035742 | 30 | 310 | 1.0 | 3.0 | 0.00 | 0.00 | 0.00 | 49 | 1017.8 |
| 20260506034747 | 31 | 309 | 3.0 | 3.0 | 0.00 | 0.00 | 0.00 | 48 | 1017.8 |
| 20260506033807 | 32 | 310 | 2.0 | 4.0 | 0.00 | 0.00 | 0.00 | 46 | 1017.8 |
| 20260506032745 | 33 | 310 | 2.0 | 5.0 | 0.00 | 0.00 | 0.00 | 45 | 1017.8 |
| 20260506031745 | 34 | 310 | 3.0 | 4.0 | 0.00 | 0.00 | 0.00 | 43 | 1017.7 |
| 20260506030746 | 35 | 310 | 4.0 | 5.0 | 0.00 | 0.00 | 0.00 | 41 | 1017.6 |
| 20260506025750 | 36 | 309 | 4.0 | 5.0 | 0.00 | 0.00 | 0.00 | 40 | 1017.4 |
| 20260506024750 | 38 | 309 | 4.0 | 5.0 | 0.00 | 0.00 | 0.00 | 38 | 1017.3 |
| 20260506023753 | 39 | 307 | 3.0 | 4.0 | 0.00 | 0.00 | 0.00 | 37 | 1017.2 |
| 20260506022752 | 40 | 307 | 4.0 | 5.0 | 0.00 | 0.00 | 0.00 | 37 | 1017.1 |
| 20260506021757 | 42 | 307 | 6.0 | 10.0 | 0.00 | 0.00 | 0.00 | 34 | 1016.9 |
| 20260506020817 | 43 | 306 | 7.0 | 11.0 | 0.00 | 0.00 | 0.00 | 32 | 1016.9 |
| 20260506015817 | 45 | 309 | 10.0 | 15.0 | 0.00 | 0.00 | 0.00 | 31 | 1016.8 |
| 20260506014816 | 45 | 317 | 13.0 | 16.0 | 0.00 | 0.00 | 0.00 | 30 | 1016.7 |
| 20260506013754 | 46 | 303 | 12.0 | 17.0 | 0.00 | 0.00 | 0.00 | 30 | 1016.6 |
| 20260506012753 | 46 | 294 | 11.0 | 17.0 | 0.00 | 0.00 | 0.00 | 29 | 1016.6 |
| 20260506011800 | 47 | 295 | 12.0 | 18.0 | 0.00 | 0.00 | 0.00 | 28 | 1016.5 |
| 20260506010801 | 47 | 296 | 15.0 | 21.0 | 0.00 | 0.00 | 0.00 | 29 | 1016.4 |
| 20260506005802 | 47 | 304 | 11.0 | 17.0 | 0.00 | 0.00 | 0.00 | 29 | 1016.4 |
| 20260506004741 | 47 | 321 | 16.0 | 22.0 | 0.00 | 0.00 | 0.00 | 28 | 1016.4 |
| 20260506003741 | 48 | 311 | 20.0 | 22.0 | 0.00 | 0.00 | 0.00 | 29 | 1016.2 |
| 20260506002749 | 47 | 305 | 12.0 | 22.0 | 0.00 | 0.00 | 0.00 | 29 | 1016.4 |
| 20260506001751 | 47 | 290 | 12.0 | 23.0 | 0.00 | 0.00 | 0.00 | 30 | 1016.1 |
| 20260506000752 | 48 | 305 | 13.0 | 23.0 | 0.00 | 0.00 | 0.00 | 29 | 1016.3 |
| 20260505235751 | 47 | 292 | 17.0 | 24.0 | 0.00 | 0.00 | 0.00 | 29 | 1016.2 |
| 20260505234759 | 48 | 289 | 17.0 | 24.0 | 0.00 | 0.00 | 0.00 | 30 | 1016.2 |
| 20260505233757 | 48 | 302 | 13.0 | 21.0 | 0.00 | 0.00 | 0.00 | 30 | 1016.2 |
| 20260505232741 | 47 | 292 | 13.0 | 20.0 | 0.00 | 0.00 | 0.00 | 29 | 1016.1 |
| 20260505231740 | 46 | 323 | 13.0 | 23.0 | 0.00 | 0.00 | 0.00 | 30 | 1016.2 |
| 20260505230745 | 47 | 300 | 13.0 | 20.0 | 0.00 | 0.00 | 0.00 | 30 | 1016.2 |
| 20260505225746 | 46 | 323 | 13.0 | 27.0 | 0.00 | 0.00 | 0.00 | 30 | 1016.3 |
| 20260505224747 | 47 | 286 | 10.0 | 24.0 | 0.00 | 0.00 | 0.00 | 30 | 1016.1 |
| 20260505223748 | 47 | 292 | 12.0 | 23.0 | 0.00 | 0.00 | 0.00 | 28 | 1016.2 |
| 20260505222748 | 48 | 315 | 17.0 | 21.0 | 0.00 | 0.00 | 0.00 | 29 | 1016.2 |
| 20260505221752 | 47 | 287 | 17.0 | 21.0 | 0.00 | 0.00 | 0.00 | 31 | 1016.2 |
| 20260505220755 | 47 | 325 | 16.0 | 23.0 | 0.00 | 0.00 | 0.00 | 32 | 1016.1 |
| 20260505215755 | 45 | 300 | 9.0 | 23.0 | 0.00 | 0.00 | 0.00 | 32 | 1016.3 |
| 20260505214755 | 46 | 303 | 17.0 | 21.0 | 0.00 | 0.00 | 0.00 | 33 | 1016.4 |
| 20260505213743 | 45 | 290 | 14.0 | 22.0 | 0.00 | 0.00 | 0.00 | 33 | 1016.4 |
| 20260505212743 | 46 | 325 | 14.0 | 23.0 | 0.00 | 0.00 | 0.00 | 33 | 1016.6 |
| 20260505211743 | 45 | 275 | 19.0 | 31.0 | 0.00 | 0.00 | 0.00 | 35 | 1016.5 |
| 20260505210744 | 45 | 298 | 15.0 | 22.0 | 0.00 | 0.00 | 0.00 | 34 | 1016.7 |
| 20260505205744 | 44 | 290 | 13.0 | 22.0 | 0.00 | 0.00 | 0.00 | 35 | 1016.7 |
| 20260505204752 | 44 | 298 | 15.0 | 20.0 | 0.00 | 0.00 | 0.00 | 36 | 1016.8 |
| 20260505203750 | 44 | 325 | 12.0 | 22.0 | 0.00 | 0.00 | 0.00 | 36 | 1016.9 |
| 20260505202752 | 44 | 297 | 13.0 | 23.0 | 0.00 | 0.00 | 0.00 | 35 | 1016.9 |
| 20260505201751 | 44 | 285 | 11.0 | 20.0 | 0.00 | 0.00 | 0.00 | 36 | 1017.0 |
| 20260505200755 | 43 | 326 | 13.0 | 21.0 | 0.00 | 0.00 | 0.00 | 38 | 1017.0 |
| 20260505195756 | 42 | 295 | 15.0 | 17.0 | 0.00 | 0.00 | 0.00 | 39 | 1017.2 |
| 20260505194756 | 43 | 279 | 7.0 | 21.0 | 0.00 | 0.00 | 0.00 | 39 | 1017.3 |
| 20260505193818 | 42 | 289 | 21.0 | 21.0 | 0.00 | 0.00 | 0.00 | 41 | 1017.3 |
| 20260505192756 | 42 | 290 | 12.0 | 24.0 | 0.00 | 0.00 | 0.00 | 40 | 1017.2 |
| 20260505191802 | 42 | 304 | 17.0 | 21.0 | 0.00 | 0.00 | 0.00 | 39 | 1017.2 |
| 20260505190740 | 41 | 301 | 14.0 | 27.0 | 0.00 | 0.00 | 0.00 | 43 | 1017.2 |
| 20260505185802 | 41 | 288 | 22.0 | 22.0 | 0.00 | 0.00 | 0.00 | 40 | 1017.2 |
| 20260505184743 | 41 | 280 | 11.0 | 24.0 | 0.00 | 0.00 | 0.00 | 41 | 1017.3 |
| 20260505183742 | 40 | 313 | 18.0 | 27.0 | 0.00 | 0.00 | 0.00 | 42 | 1017.3 |
| 20260505182751 | 40 | 286 | 16.0 | 23.0 | 0.00 | 0.00 | 0.00 | 41 | 1017.5 |
| 20260505181753 | 40 | 297 | 23.0 | 23.0 | 0.00 | 0.00 | 0.00 | 43 | 1017.4 |
| 20260505180754 | 40 | 305 | 15.0 | 25.0 | 0.00 | 0.00 | 0.00 | 42 | 1017.3 |
| 20260505175817 | 40 | 294 | 18.0 | 24.0 | 0.00 | 0.00 | 0.00 | 42 | 1017.4 |
| 20260505174741 | 40 | 313 | 25.0 | 25.0 | 0.00 | 0.00 | 0.00 | 42 | 1017.3 |
| 20260505173744 | 39 | 309 | 15.0 | 23.0 | 0.00 | 0.00 | 0.00 | 41 | 1017.3 |
| 20260505172745 | 39 | 286 | 21.0 | 26.0 | 0.00 | 0.00 | 0.00 | 42 | 1017.4 |
| 20260505171806 | 38 | 302 | 18.0 | 29.0 | 0.00 | 0.00 | 0.00 | 43 | 1017.4 |
| 20260505170745 | 39 | 297 | 20.0 | 26.0 | 0.00 | 0.00 | 0.00 | 43 | 1017.4 |
| 20260505165746 | 39 | 285 | 17.0 | 27.0 | 0.00 | 0.00 | 0.00 | 44 | 1017.5 |
| 20260505164750 | 38 | 288 | 16.0 | 27.0 | 0.00 | 0.00 | 0.00 | 44 | 1017.5 |
| 20260505163811 | 38 | 291 | 16.0 | 26.0 | 0.00 | 0.00 | 0.00 | 45 | 1017.4 |
| 20260505162749 | 37 | 292 | 17.0 | 25.0 | 0.00 | 0.00 | 0.00 | 46 | 1017.4 |
| 20260505161815 | 37 | 294 | 15.0 | 27.0 | 0.00 | 0.00 | 0.00 | 46 | 1017.3 |
| 20260505160818 | 37 | 302 | 15.0 | 25.0 | 0.00 | 0.00 | 0.00 | 47 | 1017.2 |
| 20260505152740 | 36 | 300 | 21.0 | 25.0 | 0.00 | 0.00 | 0.00 | 49 | 1017.1 |
| 20260505151802 | 36 | 300 | 14.0 | 21.0 | 0.00 | 0.00 | 0.00 | 49 | 1017.9 |
| 20260505150745 | 37 | 290 | 15.0 | 21.0 | 0.00 | 0.00 | 0.00 | 51 | 1018.0 |